Tracking 29042 objects as of 22-Jun-2024
HD Live streaming from Space Station
objects crossing your sky now

CHUBUSAT-1

Track CHUBUSAT-1 now!
10-day predictions
CHUBUSAT-1 is classified as:


NORAD ID: 40300
Int'l Code: 2014-070C
Perigee: 415.2 km
Apogee: 429.7 km
Inclination: 97.1 °
Period: 92.9 minutes
Semi major axis: 6793 km
RCS: Unknown
Launch date: November 6, 2014
Source: Japan (JPN)
Launch site: Orenburg, Russia (OREN)

Uplink (MHz): 145.980
Downlink (MHz): 437.485
Beacon (MHz): 437.485
Mode: 1200bps 9600bps CW
Call sign: JJ2YJY
Status: Inactive


CHUBUSAT-1 is a 110-pound (50-kg) satellite that was designed by Nagoya University in Japan and carries optical and infrared cameras to observe Earth and space debris.
Your satellite tracking list
Your tracking list is empty




NASA's NSSDC Master Catalog

Two Line Element Set (TLE):
1 40300U 14070C   24173.65221309  .00030677  00000-0  53720-3 0  9997
2 40300  97.0814 214.6081 0010736  45.8468 314.3665 15.50485871535377
Source of the keplerian elements: Caltech